Powrót do katalogu

COSMOS 1953

AktywnyMilitariaPO
NORAD 19210·PAYLOAD·🇷🇺 Russia

Wystrzelony Jun 14, 1988 z Plesetsk Cosmodrome

Loading…

Następne Przeloty (najbliższe 24 godziny)

TLE

ŚwieżeSource: Space-Track

Epoka: Sep 14, 2026, 21:57 UTC

1 19210U 88050A   26257.91465681  .00006516  00000-0  21565-3 0  9996
2 19210  82.5090 327.4810 0011012 166.9253 193.2276 15.31071518 66713

Śledź COSMOS 1953 w czasie rzeczywistym z AllMySat

Download on the App Store